LAPAN-A2 (40931 NORAD) Tracking and Keplerian Element Data

This shows tracking and keplerian element data for the satellite.

Feedback or suggestion? Click here.




ElementValue
Catalog40931
NameLAPAN-A2
Epoch Orbit48644
Epoch Day270.29994034
Epoch Year2024
RAAN350.0993
Inclination5.9998
Eccentricity0.0012711
Argument of Perigee76.7416
Mean Anonmoly283.4129
Mean Motion14.78150863
Decay Rate2.074E-05
L11 40931U 15052B 24270.29994034 .00002074 00000+0 19195-3 0 9995
L22 40931 5.9998 350.0993 0012711 76.7416 283.4129 14.78150863486449



Live tracking and technical data element details for LAPAN-A2 (NORAD 40931). LAPAN-A2 can be tracked NOW for your location showing map with azimuth and elevation plus other details from your city location.







IsCatalogInMostPopularTable: catalog: 40931, numindb: 744
Update: records affected: 1



GetName: 40931 LAPAN-A2

Hit Count: updated at: Thu, 23 Jan 2025 14:37:25 GMT